date,time,Tx(GONG),Ty(GONG),Tx(HMI),Ty(HMI),lon(GONG),lat(GONG),elon(GONG),elat(GONG),lon(HMI),lat(HMI),elon(HMI),elat(HMI)
2020-01-01,00:00:00,-319.40665343333967,883.5891915713275,-601.7421588604337,-439.54488927951036,25.57857714194425,62.62858981031641,10.0,10.0,26.566874472265578,-28.69729635500113,10.0,10.0
2020-01-01,06:00:00,-326.27893806574866,883.413630228406,-564.131811844185,-437.5812241102959,21.12111497723316,62.59236503616272,10.0,10.0,26.50391926032345,-28.775854200458607,10.0,10.0
2020-01-01,12:00:00,-331.3638346788939,881.5657509082258,-650.1388495462015,-645.8400906052215,17.225359416207823,62.410763952995474,10.0,10.0,0.6615755370807629,-42.436808464417524,10.0,10.0
2020-01-01,18:00:00,-332.64348105364485,885.803218399163,-660.6185382031836,-620.457791066763,13.933214906318163,62.42948328593716,10.0,10.0,357.71342573853065,-40.817636507380435,10.0,10.0
2020-01-02,00:00:00,-334.53597761015413,889.3994450174937,-652.4985554243904,-612.0345405370657,9.257638679522467,62.921147278095674,10.0,10.0,357.2067659875017,-40.151889995884474,10.0,10.0
2020-01-02,06:00:00,-334.84553922200575,895.0605204040731,-636.4338294193149,-610.6589985958698,4.565007596763119,63.55251066529845,10.0,10.0,356.0124840241246,-40.24611549890349,10.0,10.0
2020-01-02,12:00:00,-335.00197811890393,898.1285074289127,-625.867427613819,-603.9318471970282,359.09319484456887,64.34558868507958,10.0,10.0,355.32265603501594,-39.678956778958415,10.0,10.0
2020-01-02,18:00:00,-357.20914018084295,896.2496210320447,-599.2463485663758,-603.6707164210602,352.17372942444086,63.917915678877236,10.0,10.0,354.8835681122658,-39.96203966027279,10.0,10.0
2020-01-03,00:00:00,-381.1517254889477,881.7194171999125,-575.3645205216017,-605.3774898471504,347.2622303147256,62.46786678771032,10.0,10.0,354.4309640064225,-40.1546787242274,10.0,10.0
2020-01-03,06:00:00,-394.19157483242446,872.8331024910714,-547.3456925004721,-611.828874252833,344.88863546734126,61.13956007251325,10.0,10.0,353.9021852134497,-40.72388825256369,10.0,10.0
2020-01-03,12:00:00,-391.88240596978,869.996832120009,-2002.093114834977,205.94916510270312,343.4298544736317,60.633993151502075,10.0,10.0,344.10075268826006,2.851323875506816,10.0,10.0
2020-01-03,18:00:00,-379.4643058155197,874.5419687175,nan,nan,342.0363190943607,60.931234442973874,10.0,10.0,306.2090223785683,48.074387628623285,10.0,10.0
2020-01-04,00:00:00,-358.51712251803843,884.4809942365839,nan,nan,339.1926692415622,62.435492270949204,10.0,10.0,302.53810070897714,37.25496527772888,10.0,10.0
2020-01-04,06:00:00,-358.9514470831491,887.8859654714428,-840.2903392121661,511.79749690103677,332.8382450324579,63.45251489093234,10.0,10.0,301.8386018072692,31.170429266164952,10.0,10.0
2020-01-04,12:00:00,-371.6119592101313,890.5807969492968,-857.1404381156899,479.5264665070197,328.84716878324167,62.91101174368939,10.0,10.0,300.8977962627284,28.85104161853068,10.0,10.0
2020-01-04,18:00:00,-369.3051354880445,885.9473489251443,-862.0523023430724,457.70956987115534,324.12849431733144,63.331776055736434,10.0,10.0,299.99083164190534,27.349377860882573,10.0,10.0
2020-01-05,00:00:00,-373.27802205923945,885.5670142206843,-867.9346537450328,441.89048004169774,319.7022526182812,63.37088655354147,10.0,10.0,299.037785137227,26.088473739961252,10.0,10.0
2020-01-05,06:00:00,-374.2965501495637,885.3276718244026,-865.4832111443393,426.08469457453316,315.96606336090815,63.413156932366704,10.0,10.0,297.9801389278415,25.019986426104218,10.0,10.0
2020-01-05,12:00:00,-391.5655266686808,886.5544535311984,-861.2874765763991,414.1438157756383,311.231533935782,62.74594495183373,10.0,10.0,297.09877824276543,24.130858647555257,10.0,10.0
2020-01-05,18:00:00,-396.06531004584394,881.7916385549115,-858.900818486698,405.06447131267413,307.4667755836324,62.4598516769556,10.0,10.0,296.0167221080732,23.338522422025648,10.0,10.0
2020-01-06,00:00:00,-399.1426142456477,876.7791342085957,-849.5297908177598,393.0848818675872,303.8740306070386,62.20908549527767,10.0,10.0,294.756385989913,22.562243904356407,10.0,10.0
2020-01-06,06:00:00,-409.96589970216166,875.7951950552582,-847.3010342475028,388.2412043762283,300.829115751588,61.470583693546324,10.0,10.0,293.64072376455624,21.93378490287882,10.0,10.0
2020-01-06,12:00:00,-407.10980919213034,871.7801062007205,-837.5159630083945,382.3071556502066,298.412876245568,61.30348053210681,10.0,10.0,292.3613886926894,21.435782960953293,10.0,10.0
2020-01-06,18:00:00,-412.3867075066082,873.4277532315252,-826.3426731575746,379.10076995707465,296.03875151075835,60.78500255452937,10.0,10.0,291.2074015182058,21.06385802169849,10.0,10.0
2020-01-07,00:00:00,-406.46486985497177,872.0756901837143,-807.7325380654074,374.351340876872,293.895937509438,60.78294344662508,10.0,10.0,289.99750833954533,20.777338201150684,10.0,10.0
2020-01-07,06:00:00,-400.5814522909932,871.8923711362727,-798.4949831517879,374.8086667336737,291.81614178869165,60.784382824874754,10.0,10.0,288.72449143047737,20.52518707402405,10.0,10.0
2020-01-07,12:00:00,-393.98668958805496,872.7868471156712,-780.4627817817964,375.8725621843057,289.9687250725478,60.778287666668675,10.0,10.0,287.5438486545716,20.47920026506549,10.0,10.0
2020-01-07,18:00:00,-387.1262407896575,875.5419690572683,-764.0525136848447,380.488296020551,288.11949462892653,60.82646514307354,10.0,10.0,286.21009726676425,20.600533283893046,10.0,10.0
2020-01-08,00:00:00,-371.5243979399093,875.2707371783345,-740.322576764971,387.04712670190287,286.23964352142514,61.35921490568504,10.0,10.0,284.81419665800047,21.02761010885248,10.0,10.0
2020-01-08,06:00:00,-364.8321247908752,882.1495039955478,-718.6639588752297,396.60098678683295,283.9978783197665,61.62916501554138,10.0,10.0,283.2451194041715,21.606208764556627,10.0,10.0
2020-01-08,12:00:00,-349.1512874471955,885.9534734067364,-707.3953694761731,412.99465144876496,281.4093562792182,62.54569437805951,10.0,10.0,281.32909675136585,22.34497910827005,10.0,10.0
2020-01-08,18:00:00,-344.48331543058157,894.1330944641098,-681.1339427405038,423.41657805746314,278.268122164268,63.0288159740121,10.0,10.0,279.60856586194984,23.15637453127693,10.0,10.0
2020-01-09,00:00:00,-332.6506062238477,898.8076564996553,-662.2072446085513,445.0781920201216,275.0684040357234,63.93292052852848,10.0,10.0,277.7109619196254,24.398276943003086,10.0,10.0
2020-01-09,06:00:00,-2117.6532922959886,177.23193242875854,-650.3955994637217,468.79428497630823,263.6633243786889,2.070383311050121,10.0,10.0,274.8280076274504,25.899460334616123,10.0,10.0
2020-01-09,12:00:00,-2112.9645437865984,195.0273930261569,-638.4761699659283,487.9353325249045,260.2501146451919,2.4901030800412047,10.0,10.0,272.16685006084384,27.06640733197973,10.0,10.0
2020-01-09,18:00:00,-2119.8509332244284,196.70973217605163,-617.4532620322425,500.882173333767,256.8168273996405,2.5153513068660107,10.0,10.0,270.0115390025689,28.049415964404933,10.0,10.0
2020-01-10,00:00:00,-2125.2237705045845,198.10614471735516,-592.8688526893966,521.6187566180838,253.38465192212,2.5371927499236397,10.0,10.0,268.2459576906593,29.408960611051818,10.0,10.0
2020-01-10,06:00:00,-2129.7236574289855,199.17730491016488,-547.7283809573855,562.3524938711145,249.9532943246264,2.5534205602338518,10.0,10.0,267.7654333156329,32.0594111192067,10.0,10.0
2020-01-10,12:00:00,-2133.7165301651694,199.93218142256248,-531.9105662042275,633.7788878640778,246.52291062737984,2.563461665417896,10.0,10.0,262.63495140826404,37.41042171541083,10.0,10.0
2020-01-10,18:00:00,-2137.421503907768,200.48403813964626,-532.2857099731918,643.9724982011766,243.09420396365024,2.5693917706773224,10.0,10.0,258.9380673920595,38.08395892711642,10.0,10.0
2020-01-11,00:00:00,-429.44184010638855,-845.2719022826454,-519.8650607676245,646.4146556994916,232.77049345526316,-61.43004857972951,10.0,10.0,256.71510399199474,38.25926678055652,10.0,10.0
2020-01-11,06:00:00,-462.3647382121999,-838.7008093351153,-478.95892786653707,670.1437550969823,225.30734530188568,-60.0938317751336,10.0,10.0,256.3072858342448,39.96200826202682,10.0,10.0
2020-01-11,12:00:00,-509.1810235851444,-812.8719921240288,-420.3083546205889,729.7928940068491,216.95081730236046,-57.47670547476471,10.0,10.0,255.5532898343606,44.722655149821996,10.0,10.0
2020-01-11,18:00:00,-642.7477850909345,-724.5956416099402,-413.4585608399939,787.075430727381,208.9815452305655,-48.40035995779808,10.0,10.0,248.5753294112304,49.94741857267586,10.0,10.0
2020-01-12,00:00:00,-854.4024793244897,-408.0791716172168,-409.0131550373044,804.1317599524632,210.08763610949242,-25.744883804461864,10.0,10.0,243.53468636576852,51.92508760713372,10.0,10.0
2020-01-12,06:00:00,-846.8961231124123,-386.6839068924809,-398.1193794305436,813.6911430097713,210.39703279948262,-24.62961637836983,10.0,10.0,239.6807814766899,53.35111025411477,10.0,10.0
2020-01-12,12:00:00,-839.1891678727698,-380.9738485442765,-384.4678699735086,830.1479133650653,209.50966256882728,-24.364015054291634,10.0,10.0,236.4768850405589,54.8497467352125,10.0,10.0
2020-01-12,18:00:00,-828.1851719841362,-380.49161503399483,-369.9732289642561,849.9805421283792,208.398632910805,-24.439987008550435,10.0,10.0,232.7855119939079,56.76903775311426,10.0,10.0
2020-01-13,00:00:00,-813.6121965039057,-381.5438298504004,-354.28995819180267,869.5033181604988,207.1811959350941,-24.665898441496267,10.0,10.0,228.15088349457756,59.18715438553282,10.0,10.0
2020-01-13,06:00:00,-804.4918058328329,-390.5153687598355,-346.19338008970954,886.5256008859419,204.01018391439584,-25.36998020066245,10.0,10.0,221.36253023528684,61.77289211336978,10.0,10.0
2020-01-13,12:00:00,-796.6998060313052,-407.451814078134,-356.60649734968314,891.9329978608231,201.20725281213646,-26.42209243501437,10.0,10.0,210.513908082516,63.7722091492005,10.0,10.0
2020-01-13,18:00:00,-783.3066765684634,-407.8548910035186,-405.70057123992586,881.3683442469479,199.49557636983312,-26.61723811351627,10.0,10.0,200.46808209312,62.201380469346105,10.0,10.0
2020-01-14,00:00:00,-769.6619881335646,-409.65779859100485,-445.9869414423592,867.2237064003735,198.13872760674099,-26.825759455427672,10.0,10.0,192.70223395646596,60.45652270540046,10.0,10.0
2020-01-14,06:00:00,-2162.909703864483,191.62615287838688,-489.31248787930235,839.5783152317626,195.68380198688797,2.2739905062245027,10.0,10.0,185.79744529889416,57.94767224078628,10.0,10.0
2020-01-14,12:00:00,-2158.501709422795,187.80184750572,-549.8510227904188,798.0889243098696,192.35822900752441,2.1856943681742576,10.0,10.0,181.39253143561328,53.62361574509164,10.0,10.0
2020-01-14,18:00:00,-2162.191673803376,169.24453711154953,-590.0808494202793,755.2155665319864,189.07569775538101,1.7352488815418847,10.0,10.0,182.83549138660544,49.00398689686156,10.0,10.0
2020-01-15,00:00:00,-469.0626375600697,848.1252202073279,-587.4058623141608,752.665695156113,182.28070392545214,57.973200392276446,10.0,10.0,182.20401705385868,48.336129565045155,10.0,10.0
2020-01-15,06:00:00,-464.4334185239859,844.5157465541391,-576.2319884542376,755.7743873669439,180.412631918036,57.76458088245722,10.0,10.0,180.44494125170425,48.577639611861706,10.0,10.0
2020-01-15,12:00:00,-457.5241362210363,843.0880015616583,-567.2228077922482,759.804198426785,178.87069880823876,57.64732913733178,10.0,10.0,178.63100392332368,48.744347407402884,10.0,10.0
2020-01-15,18:00:00,-448.3056837613694,844.7658407512041,-555.6462855786085,765.2949878746913,177.6087528654471,57.654739548645,10.0,10.0,177.07614253611442,48.998938765844784,10.0,10.0
2020-01-16,00:00:00,-439.6584158139303,849.6268953727222,-534.1500489120372,772.671984174935,176.26263364094268,57.7205965213085,10.0,10.0,175.4858395382544,49.85306025341279,10.0,10.0
2020-01-16,06:00:00,-423.1401836087462,851.8461479738032,-513.6895281721372,782.8611959194426,174.79878910336825,58.19936292428547,10.0,10.0,173.76584077208977,50.80782716123767,10.0,10.0
2020-01-16,12:00:00,-407.64788925577886,856.1447687748248,-490.79512345837435,793.3896284299337,173.38394600960285,58.656135584788856,10.0,10.0,172.45061905699237,51.76731080927106,10.0,10.0
2020-01-16,18:00:00,-392.0761924346443,865.0194303156172,-468.1598360149656,809.7114492168722,171.79784142133508,59.311694958679674,10.0,10.0,171.02808895209097,52.9615676553516,10.0,10.0
2020-01-17,00:00:00,-374.4653561098967,877.0982508131402,-448.00867415103136,825.5352435333067,169.5105035426574,60.462436296236746,10.0,10.0,168.37942772808054,54.489832489091604,10.0,10.0
2020-01-17,06:00:00,-351.1308888234198,888.7916759536099,-435.2198634541128,832.9792372326853,165.94543658807908,62.47720674175337,10.0,10.0,164.85156597679912,55.63736746376469,10.0,10.0
2020-01-17,12:00:00,-358.82007977901964,894.464469214992,-432.56304205418564,843.0315848450957,160.3596540950335,62.888292235415875,10.0,10.0,161.16499719345939,56.2865770315356,10.0,10.0
2020-01-17,18:00:00,-361.3850420804229,897.0343996760022,-422.54031809838483,844.5004778646362,155.862819227782,63.16721760911669,10.0,10.0,157.7971709180394,56.99705017566229,10.0,10.0
2020-01-18,00:00:00,-354.90458446484985,895.2340848679758,-414.31648773048073,851.290038535092,151.09446249330975,63.980934125014144,10.0,10.0,155.28661978825423,57.43758200599622,10.0,10.0
2020-01-18,06:00:00,-359.0208520756569,896.4856387972779,-402.33176035573706,855.1922948576132,146.3734089252479,64.14396484368771,10.0,10.0,152.12269028874297,58.28894277878135,10.0,10.0
2020-01-18,12:00:00,-361.87439447478386,896.6616963164423,-397.9728723056615,859.857103413163,142.168458825291,64.20818674420578,10.0,10.0,149.22478403858406,58.56457328014965,10.0,10.0
2020-01-18,18:00:00,-363.2183060578536,899.9395063544832,-391.3617160685826,864.1695196041794,137.4359106871616,64.57022954658767,10.0,10.0,146.88456558962454,58.75883585831434,10.0,10.0
2020-01-19,00:00:00,-371.52538109757006,899.2181664429521,-380.9853532225825,864.3677596789016,132.20542877794944,64.49632609874213,10.0,10.0,144.46577550758332,59.11239717320127,10.0,10.0
2020-01-19,06:00:00,-381.15380403748713,898.4149922173334,-2138.013683278812,177.19592035755642,127.2642148506069,64.25795690893996,10.0,10.0,130.88839831418662,1.6272067611757401,10.0,10.0
2020-01-19,12:00:00,-386.12441477458924,891.0591968986405,-746.3499877052382,-603.3810855476523,122.16719619649444,64.1481340102589,10.0,10.0,107.44461765019574,-39.14045261008171,10.0,10.0
2020-01-19,18:00:00,-2131.965059738141,154.97793331826125,-787.2910491477232,-537.6047189194513,124.92251895880871,1.0293620509240768,10.0,10.0,106.4841345214341,-34.5218037542352,10.0,10.0
2020-01-20,00:00:00,-2118.6502265327144,175.9816093501413,-786.8212520533708,-525.472595340658,121.99794792211145,1.4851976662008313,10.0,10.0,105.74009431778828,-33.817283401863484,10.0,10.0
2020-01-20,06:00:00,-764.8327704898547,-544.2661996207585,-782.0666504246183,-516.9041182630095,105.16107799777546,-35.2533383440279,10.0,10.0,105.28384422456423,-33.35037279876295,10.0,10.0
2020-01-20,12:00:00,-757.7921069189906,-532.3241941905001,-765.1245427082757,-506.1068680087858,104.84222126643732,-34.622433673596966,10.0,10.0,104.93743102372663,-33.09226523073546,10.0,10.0
2020-01-20,18:00:00,-740.5399615215139,-518.667411377927,-755.923113421537,-493.87259872523583,104.4065208331075,-34.19500041682942,10.0,10.0,104.9208102297775,-32.39671616873322,10.0,10.0
2020-01-21,00:00:00,-732.2443630762863,-515.8242240513923,-786.7123875471298,-413.83078923146485,103.90183764312894,-33.93000626883131,10.0,10.0,102.793082161063,-27.25999469896688,10.0,10.0
2020-01-21,06:00:00,-709.1671457651538,-506.6191975370185,-843.4487660990562,-341.1243141939408,103.50233448296746,-33.77938715383123,10.0,10.0,96.40201155753188,-22.271658751641045,10.0,10.0
2020-01-21,12:00:00,-695.0105824647471,-503.5915999259549,-824.9046696475708,-327.1714961483125,102.98353528680373,-33.57652644790373,10.0,10.0,96.27857185184172,-21.706735706989043,10.0,10.0
2020-01-21,18:00:00,-672.4532611570321,-499.8070462493173,-803.337370893918,-323.3887320617247,102.561795007605,-33.54578176017507,10.0,10.0,95.8021398891352,-21.734366743465973,10.0,10.0
2020-01-22,00:00:00,-641.4300620891154,-496.14734529218987,-789.7548737472389,-329.985021637933,102.27693432697416,-33.7332398112705,10.0,10.0,93.7819773835257,-22.27519859009325,10.0,10.0
2020-01-22,06:00:00,-619.1631441828795,-499.4210855272757,-771.5377334658988,-328.66885982484587,101.74734511963837,-33.934605355097816,10.0,10.0,93.13255734413215,-22.316016565830488,10.0,10.0
2020-01-22,12:00:00,-589.3607541848905,-505.0546888409527,-746.0274212989025,-326.0753552110123,101.24510510254528,-34.47446710210692,10.0,10.0,92.51325417383384,-22.40975154501361,10.0,10.0
2020-01-22,18:00:00,-553.5897483990993,-514.5670168368332,-719.5828882844652,-324.6110724577711,100.74939348088549,-35.40321896252426,10.0,10.0,92.09084750531923,-22.512212593764033,10.0,10.0
2020-01-23,00:00:00,-507.37859072349966,-550.5296168442746,-686.8439531952607,-323.8124537952465,100.19491976712686,-38.07479980491664,10.0,10.0,91.82330625136714,-22.72684184584929,10.0,10.0
2020-01-23,06:00:00,-497.2048791632988,-649.9065305061555,-661.3924678508192,-362.50884687046585,91.44756749181252,-45.403151185176476,10.0,10.0,89.78151059804405,-25.224317218694786,10.0,10.0
2020-01-23,12:00:00,-493.1182549528312,-654.1346992587398,-634.1664845631458,-386.87230011122114,88.95865003270781,-45.47042314902101,10.0,10.0,88.29783564301752,-26.868474153828675,10.0,10.0
2020-01-23,18:00:00,-472.05889708804904,-652.0444370744449,-597.519938782556,-457.88379354048067,87.70500960069657,-45.66042828477497,10.0,10.0,85.97020057743806,-31.482809602579565,10.0,10.0
2020-01-24,00:00:00,-450.8403783722315,-654.6516518563917,-562.497405848233,-462.11398703304,86.55462611629935,-45.979817244716656,10.0,10.0,85.38911944461455,-32.090341111107314,10.0,10.0
2020-01-24,06:00:00,-428.76739386678673,-659.4084169211874,-551.8604260953143,-504.36419164554786,85.37705156102885,-46.42384013976291,10.0,10.0,81.63627681871615,-34.80195489666845,10.0,10.0
2020-01-24,12:00:00,-397.21715971524833,-664.7367395085038,-583.255757154664,-493.4873780235466,84.68611538848162,-47.20470378894744,10.0,10.0,75.82566077117652,-33.928889211318086,10.0,10.0
2020-01-24,18:00:00,-364.0768546517937,-676.2496806704312,-553.8382282089442,-482.68820209831426,84.1061379706875,-48.275944440249155,10.0,10.0,75.26605477058467,-33.602327673555514,10.0,10.0
2020-01-25,00:00:00,-331.04115899861785,-689.8084084945648,-525.6666084360331,-482.32145623873015,83.5332100838195,-49.42306909545676,10.0,10.0,74.69031823235397,-33.68044317501603,10.0,10.0
2020-01-25,06:00:00,-298.3373179978225,-703.108216057205,-536.9519527077209,-496.5845597545988,83.08662118444995,-50.44674929610765,10.0,10.0,70.03685607944125,-34.476666946730425,10.0,10.0
2020-01-25,12:00:00,-248.43644366599617,-726.3417845922243,-508.1213500786107,-491.76800553527886,83.32354637098919,-52.922400713252365,10.0,10.0,69.48852442649414,-34.33075469191856,10.0,10.0
2020-01-25,18:00:00,-197.18677517818287,-779.7470777858243,-471.23131186887616,-486.1872347666012,82.54921838688641,-58.0183408373081,10.0,10.0,69.23265648159139,-34.3245920614056,10.0,10.0
2020-01-26,00:00:00,-175.30641400697638,-793.7701813621359,-440.10302581964066,-483.63847410057673,80.96642159313393,-59.477604249166724,10.0,10.0,68.95141493157898,-34.11227299382766,10.0,10.0
2020-01-26,06:00:00,-159.23546420037746,-799.3849320261737,-401.46537281060586,-480.09445728993364,79.6687172763144,-59.63764388071423,10.0,10.0,68.76140128014008,-34.11134933980902,10.0,10.0
2020-01-26,12:00:00,-134.0384666309692,-801.0799819108048,-359.83843066543335,-477.3887800298143,79.21272903314419,-60.011499052439916,10.0,10.0,68.72388824595053,-34.14929680145171,10.0,10.0
2020-01-26,18:00:00,-104.67351531377062,-799.711679490893,-315.30281321005896,-475.46521065460297,79.38894632596694,-60.121295677566394,10.0,10.0,68.82684300233646,-34.22671882836588,10.0,10.0
2020-01-27,00:00:00,-70.46065398305655,-795.0382452497913,-273.4513343104627,-475.9272776229727,80.19515250641076,-59.96128100631858,10.0,10.0,68.890926923753,-34.14994803939075,10.0,10.0
2020-01-27,06:00:00,-33.564424959011376,-785.0943604638866,-224.1079954858869,-475.8596832186772,81.4051380658357,-58.72762138222365,10.0,10.0,69.195103873771,-34.29593014457054,10.0,10.0
2020-01-27,12:00:00,11.358007073570421,-758.0402167802148,-174.49151030322537,-477.1453972513863,83.09367145175669,-56.41125770380614,10.0,10.0,69.512383804788,-34.4234678596287,10.0,10.0
2020-01-27,18:00:00,49.494833358110654,-697.7861732998596,-119.51891426229851,-478.55599780001563,83.17652119363599,-50.866402412695805,10.0,10.0,70.11237985152596,-34.67083167089799,10.0,10.0
2020-01-28,00:00:00,92.24954886584676,-679.656963603007,-9.391611579805614,-468.43091405329085,83.66210828394125,-49.572966887485144,10.0,10.0,74.64958432585671,-34.041406353127925,10.0,10.0
2020-01-28,06:00:00,140.1608691597744,-661.6002647090464,48.598126944197844,-467.56461636709787,84.39360397903684,-48.088183097759675,10.0,10.0,75.43896031169946,-34.08126726732752,10.0,10.0
2020-01-28,12:00:00,192.0510730914121,-649.2781413412598,132.62938067479132,-528.6046063369215,85.2965211775514,-46.798544958944795,10.0,10.0,78.6426625896467,-38.249379492175315,10.0,10.0
2020-01-28,18:00:00,250.62218891132758,-637.4185011324283,282.926040042057,-445.2866012868296,87.10401396425871,-46.04353541563074,10.0,10.0,85.44420757470289,-32.437004143007776,10.0,10.0
2020-01-29,00:00:00,306.02163622131445,-639.1045805027535,337.67039107628534,-438.5269441943908,88.55198116975981,-45.67263080094125,10.0,10.0,86.11608473571671,-31.895097632353462,10.0,10.0
2020-01-29,06:00:00,374.52961926471664,-639.4167932591512,397.8347176233895,-433.97739269789724,91.76990286832235,-45.492131117623615,10.0,10.0,87.03555105570244,-31.252732195603727,10.0,10.0
2020-01-29,12:00:00,549.5318516599364,-534.3576956218006,494.0249525838591,-354.86227807887497,100.41895273085026,-37.28032633004968,10.0,10.0,89.40005373481077,-25.93127089933641,10.0,10.0
2020-01-29,18:00:00,602.6222918637461,-508.749618844453,577.8458225118877,-319.00756876362425,101.15361009754602,-35.229457583492,10.0,10.0,92.112877579502,-23.442435274741197,10.0,10.0
2020-01-30,00:00:00,646.1378327205513,-505.7921124806698,623.674424908984,-317.9577498459525,101.7862158229667,-34.547964974136555,10.0,10.0,92.94390134899872,-23.22967225320382,10.0,10.0
2020-01-30,06:00:00,677.0294063627782,-503.0311029151087,670.2720387080471,-324.8530921175603,102.47612816667727,-34.25368450365658,10.0,10.0,94.039464783812,-23.3688022179052,10.0,10.0
2020-01-30,12:00:00,705.9567465996747,-506.38038327883385,722.9872929035434,-486.85427990951246,103.04804961537657,-34.17175061288617,10.0,10.0,104.13273090805464,-32.81706048197761,10.0,10.0
2020-01-30,18:00:00,732.7353662610217,-513.9334461814875,744.1900540334981,-495.9676352669262,103.4906792667928,-34.23011380885451,10.0,10.0,104.04923599328926,-33.047341150356196,10.0,10.0
2020-01-31,00:00:00,751.4008053991632,-519.0032098591295,766.3709508366853,-503.82186949764366,103.9684910079642,-34.333375024828364,10.0,10.0,104.22058652269077,-33.127870491100744,10.0,10.0
2020-01-31,06:00:00,767.27946985528,-526.1947616566126,782.2394732422702,-510.82155716173247,104.31913314686594,-34.50343981141955,10.0,10.0,104.50604803212698,-33.281589701608766,10.0,10.0
2020-01-31,12:00:00,780.4591551701245,-535.0077280570514,789.2040346040263,-514.924916678997,104.59569653861288,-34.72706556485158,10.0,10.0,104.7761162233114,-33.472264316531515,10.0,10.0
2020-01-31,18:00:00,790.483016701125,-545.1638972920687,803.3632656581859,-523.193014750087,104.81402269757379,-35.01174488161714,10.0,10.0,104.9851902245341,-33.532123414637645,10.0,10.0
2020-02-01,00:00:00,792.2696413677188,-546.9060740913296,806.7246719906859,-527.4589696462,104.92408107563676,-35.06300815512375,10.0,10.0,105.15747222501614,-33.641267858209915,10.0,10.0
2020-02-01,06:00:00,795.590699620776,-556.9161727007302,815.3348815888949,-536.750370116774,104.97313580900105,-35.367784889198774,10.0,10.0,105.34869615206732,-33.72931252275764,10.0,10.0